Home   Weather   Kailua-Kona   Past weeks

Flag for USA Past Weather in Kailua-Kona, Hawaii, USA — Yesterday and Last 2 Weeks

Now
84 °F

Sunny.


Feels Like: 86 °F
Forecast: 68 / 77 °F
Wind: 13 mph from South

Location: Keahole Airport

Current Time: Apr 27, 2017 at 4:35:46 pm

Latest Report: Apr 27, 2017 at 3:53 pm


Visibility: 10 mi

Pressure: 29.95 "Hg

Humidity: 53%

Dew Point: 65 °F

Location of Kailua-KonaLocation

Past Weather in Kailua-Kona — Graph

°F

Kailua-Kona Temperature Yesterday

Maximum temperature yesterday: 84 °F (at 11:53 am)
Minimum temperature yesterday: 73 °F (at 5:53 am)
Average temperature yesterday: 79 °F

High & Low Weather Summary for the Past Weeks

 TemperatureHumidityPressure
High84 °F (Apr 18, 11:53 am)85% (Apr 20, 11:53 pm)30.09 "Hg (Apr 20, 11:53 pm)
Low71 °F (Apr 13, 5:53 am)51% (Apr 25, 8:53 am)29.91 "Hg (Apr 14, 3:53 pm)
Average78 °F67%30.01 "Hg
* Reported Apr 12 2:53 pm — Apr 27 2:53 pm, Kailua-Kona, Weather by CustomWeather, © 2017

Note: Actual official high and low records may vary slightly from our data, if they occured in-between our weather recording intervals... More about our weather records

Advertising

Kailua-Kona Weather History for the Previous 24 Hours

Scroll right to see more
 ConditionsComfort  
Time TempWeatherWind HumidityBarometerVisibility
2:53 pm
Thu, Apr 27
84 °FSunny.14 mph51%29.98 "Hg10 mi
1:53 pm84 °FScattered clouds.12 mph53%29.99 "Hg10 mi
12:53 pm83 °FPartly sunny.12 mph55%30.01 "Hg10 mi
11:53 am81 °FPartly sunny.9 mph62%30.03 "Hg10 mi
10:53 am81 °FScattered clouds.12 mph62%30.03 "Hg10 mi
9:53 am81 °FPartly sunny.10 mph60%30.03 "Hg10 mi
8:53 am80 °FScattered clouds.7 mph64%30.03 "Hg10 mi
7:53 am78 °FScattered clouds.5 mph69%30.03 "Hg10 mi
6:53 am76 °FSunny.5 mph74%30.01 "Hg10 mi
5:53 am76 °FPassing clouds.3 mph74%29.99 "Hg10 mi
4:53 am77 °FPassing clouds.3 mph71%29.98 "Hg10 mi
3:53 am77 °FOvercast.6 mph74%29.98 "Hg10 mi
2:53 am77 °FPassing clouds.8 mph77%29.98 "Hg10 mi
1:53 am77 °FPassing clouds.9 mph74%30.00 "Hg10 mi
12:53 am78 °FOvercast.8 mph74%30.02 "Hg10 mi
11:53 pm
Wed, Apr 26
78 °FMostly cloudy.13 mph74%30.03 "Hg10 mi
10:53 pm78 °FOvercast.15 mph74%30.04 "Hg10 mi
9:53 pm78 °FMostly cloudy.13 mph74%30.04 "Hg10 mi
8:53 pm78 °FPassing clouds.13 mph74%30.03 "Hg10 mi
7:53 pm79 °FOvercast.12 mph72%30.02 "Hg10 mi
6:53 pm79 °FOvercast.10 mph69%30.00 "Hg10 mi
5:53 pm81 °FPartly sunny.13 mph65%29.99 "Hg10 mi
4:53 pm82 °FPartly sunny.12 mph60%29.98 "Hg10 mi
Weather by CustomWeather, © 2017

See weather overviewHow to use our weather pages